• MPC Preparation (Info)

  • MPEC 2022-L34 : 2022 LO

    The following Minor Planet Electronic Circular may be linked-to from your own Web pages, but must not otherwise be redistributed electronically.

    A form allowing access to any MPEC is at the bottom of this page.


    Read MPEC 2022-L33 Read MPEC 2022-L35


    M.P.E.C. 2022-L34                                  Issued 2022 June 5, 13:08 UT
    
         The Minor Planet Electronic Circulars contain information on unusual
             minor planets and routine data on comets.  They are published
        on behalf of Division F of the International Astronomical Union by the
              Minor Planet Center, Smithsonian Astrophysical Observatory,
                              Cambridge, MA 02138, U.S.A.
    
                 Prepared using the Tamkin Foundation Computer Network
    
                                  MPC@CFA.HARVARD.EDU
                URL https://www.minorplanetcenter.net/    ISSN 1523-6714
    
                                     2022 LO                                 
    
    
    Observations:
         K22L00O* C2022 06 03.46075715 02 53.071+21 57 30.36         21.71wUEL034F52
         K22L00O  C2022 06 03.47170715 02 53.942+21 56 55.58         21.62wUEL034F52
         K22L00O  C2022 06 03.49368515 02 55.698+21 55 45.60         21.61wUEL034F52
         K22L00O  C2022 06 03.55157115 03 00.730+21 52 39.56         21.55GVEL034F52
         K22L00O  C2022 06 03.55220115 03 00.805+21 52 37.52         21.63GVEL034F52
         K22L00O KC2022 06 04.11863115 04 04.12 +21 22 43.9          21.5 VuEL034H21
         K22L00O KC2022 06 04.12297815 04 04.48 +21 22 30.0          21.6 VuEL034H21
         K22L00O KC2022 06 04.15004215 04 08.213+21 21 09.83               VEL034V06
         K22L00O KC2022 06 04.15106915 04 08.339+21 21 05.33         21.47GVEL034V06
         K22L00O KC2022 06 04.15209815 04 08.411+21 21 02.48         21.37GVEL034V06
         K22L00O KC2022 06 04.15312715 04 08.486+21 20 59.35         21.42GVEL034V06
         K22L00O  C2022 06 04.29882215 04 23.484+21 13 23.76         21.37GVEL034F52
         K22L00O  C2022 06 04.29962515 04 23.547+21 13 21.27         21.43GVEL034F52
         K22L00O 1C2022 06 04.91988 15 05 27.67 +20 38 48.2          20.8 VXEL034033
         K22L00O 1C2022 06 04.92318 15 05 27.97 +20 38 37.4          20.6 VXEL034033
         K22L00O 1C2022 06 04.92654 15 05 28.29 +20 38 26.2          20.7 VXEL034033
         K22L00O  C2022 06 05.20089215 06 00.169+20 23 16.82         21.4 GVEL034654
         K22L00O  C2022 06 05.22486215 06 02.172+20 21 56.22         21.1 GVEL034654
         K22L00O  C2022 06 05.24938815 06 04.260+20 20 32.99         21.5 GVEL034654
         K22L00O KC2022 06 05.39300215 06 16.760+20 12 14.70               VEL034I52
         K22L00O KC2022 06 05.39429415 06 16.910+20 12 11.20               VEL034I52
         K22L00O KC2022 06 05.39558715 06 16.990+20 12 06.20         21.71GVEL034I52
         K22L00O KC2022 06 05.39895015 06 17.330+20 11 54.00         21.38GVEL034I52
    
    Observer details:
    033 Karl Schwarzschild Observatory, Tautenburg.  Observers S. Melnikov, C.
        Hoegner, U. Laux, F. Ludwig, B. Stecklum.  Measurer B. Stecklum.  1.34-m
        f/3 Schmidt + CCD.
    654 Table Mountain Observatory, Wrightwood-PHMC.  Observers N. Evans, P. Choi,
        N. Saini, C. Zhai, R. Trahan, M. Shao.  1.0-m Reflector + CCD.
    F52 Pan-STARRS 2, Haleakala.  Observers J. Bulger, T. Lowe, A. Schultz, I.
        Smith, K. Chambers, T. Dukes.  Measurers K. Chambers, S. Chastel, T. de
        Boer, J. Fairlamb, H. Gao, M. Huber, C.-C. Lin, E. Magnier, Y.
        Ramanjooloo, R. Wainscoat, R. Weryk.  1.8-m Ritchey-Chretien + CCD.
    H21 Astronomical Research Observatory, Westfield.  Observer R. Holmes.
        Measurers T. Linder, R. Holmes, L. Horn.  1.3-m f/4.0 astrograph + CCD.
    I52 Steward Observatory, Mt. Lemmon Station.  Observer G. J. Leonard.
        Measurers E. J. Christensen, D. Fay, J. B. Fazekas, D. C. Fuls, A. R.
        Gibbs, A. D. Grauer, H. Groeller, J. K. Hogan, R. A. Kowalski, S. M.
        Larson, G. J. Leonard, D. Rankin, R. L. Seaman, A. Serrano, F. C. Shelly,
        K. W. Wierzchos.  1.0-m prime focus + CCD.
    V06 Catalina Sky Survey-Kuiper.  Observer G. J. Leonard.  Measurers E. J.
        Christensen, D. Fay, J. B. Fazekas, D. C. Fuls, A. R. Gibbs, A. D. Grauer,
        H. Groeller, J. K. Hogan, R. A. Kowalski, S. M. Larson, G. J. Leonard, D.
        Rankin, R. L. Seaman, A. Serrano, F. C. Shelly, K. W. Wierzchos.  1.55-m
        reflector + 1K CCD.
    
    Orbital elements:
    2022 LO                                                  Earth MOID = 0.0942 AU
    Epoch 2022 Jan. 21.0 TT = JDT 2459600.5                 Veres                   
    M 295.16116              (2000.0)            P               Q                  
    n   0.44927906     Peri.  161.96583     -0.17789732     +0.97156953             
    a   1.6883349      Node    97.56350     -0.92114388     -0.10856378             
    e   0.3472990      Incl.    9.06720     -0.34618853     -0.21039620             
    P   2.19           H   23.97          G   0.15           U   8                  
    Residuals in seconds of arc
    220603 F52  0.1+  0.0     220604 V06  0.3+  0.4-    220605 654 (1.2+  0.3-)
    220603 F52  0.1+  0.0     220604 V06  0.1+  0.0     220605 654  0.2+  0.1-
    220603 F52  0.3-  0.0     220604 V06  0.0   0.1+    220605 654  0.1-  0.1-
    220603 F52  0.1-  0.1+    220604 F52  0.1-  0.0     220605 I52  0.2+  0.5-
    220603 F52  0.1+  0.1+    220604 F52  0.1-  0.1+    220605 I52  0.6+  0.6+
    220604 H21  0.2-  0.0     220604 033  0.1-  0.2-    220605 I52  0.1-  0.2+
    220604 H21  0.2-  0.1-    220604 033  0.1-  0.1+    220605 I52  0.1+  0.1-
    220604 V06 (0.3-  0.9+)   220604 033  0.1+  0.2+
    
    Ephemeris:
    2022 LO                  a,e,i = 1.69, 0.35, 9                   q = 1.1020
    Date    TT    R. A. (2000) Decl.     Delta      r    Elong.  Phase     V
    2022 05 06    14 39 27.8 +31 44 27   0.2160  1.1639   131.8    40.2    22.6
    ...
    2022 05 21    14 46 55.9 +29 40 58   0.1726  1.1264   128.0    45.1    22.1
    ...
    2022 05 29    14 54 57.3 +25 57 24   0.1513  1.1131   128.0    45.8    21.8
    ...
    2022 06 04    15 03 50.6 +21 29 26   0.1368  1.1064   129.5    45.0    21.6
    2022 06 05    15 05 36.8 +20 34 55   0.1345  1.1056   129.9    44.8    21.5
    2022 06 06    15 07 28.4 +19 37 23   0.1323  1.1049   130.3    44.5    21.5
    ...
    2022 06 12    15 20 37.9 +12 44 51   0.1204  1.1022   133.8    41.7    21.2
    ...
    2022 06 20    15 43 53.4 +00 34 52   0.1100  1.1033   140.5    35.8    20.9
    ...
    2022 07 05    16 45 08.9 -25 44 00   0.1168  1.1197   150.3    26.7    20.8
    
    M. P. C. Staff               (C) Copyright 2022 MPC           M.P.E.C. 2022-L34
    


    Read MPEC 2022-L33 Read MPEC 2022-L35


    MPEC number:

    Enter an MPEC number in one of the following forms:

    • 1997-B01 (the full form)
    • J97B01 (the packed version of the full form)
    • B01 (the abbreviated form)